Location: Newark
(42.8481°N, 0.4872°E)
Time: 08:38:40
(UTC+00:00)

SR - Pass Details

Date: 04 November 2020
Orbit: 579 x 876 km, 66.7° (Epoch: 29 November)

Event Time Altitude Azimuth Distance (km) Brightness Sun altitude
Rises 00:04:01 0° 196° (SSW) 2,780 - -62.2°
Reaches altitude 10° 00:06:15 10° 191° (SSW) 1,886 - -62.1°
Maximum altitude 00:10:20 51° 116° (ESE) 743 - -61.9°
Drops below altitude 10° 00:14:34 10° 40° (NE) 1,963 - -61.7°
Sets 00:16:55 0° 36° (NE) 2,906 - -61.6°
